Location: Buena Vista
(37.7110°N, 119.7938°W)
Time: 15:13:09
(UTC+00:00)

NANOSAT C BR1 - Visible Passes

Search period start: 04 October 2024 00:00
Search period end: 14 October 2024 00:00
Orbit: 539 x 549 km, 98.1° (Epoch: 03 October)

Date Brightness Start Highest point End Pass type
(mag) Time Alt. Az. Time Alt. Az. Time Alt. Az.
04 Oct ? 11:16:59 10° E 11:17:49 11° E 11:18:39 10° ESE visible
04 Oct ? 12:48:52 10° N 12:52:37 47° WNW 12:56:21 10° SSW visible
05 Oct ? 12:42:44 10° N 12:46:34 57° WNW 12:50:23 10° SSW visible
06 Oct ? 12:36:34 10° N 12:40:28 70° WNW 12:44:19 10° SSW visible
07 Oct ? 12:30:22 10° NNE 12:34:16 85° WNW 12:38:09 10° SSW visible
08 Oct ? 12:24:06 10° NNE 12:28:02 79° ESE 12:31:54 10° S visible
09 Oct ? 12:17:49 10° NNE 12:21:42 64° ESE 12:25:33 10° S visible
10 Oct ? 12:11:29 10° NNE 12:15:18 52° E 12:19:05 10° S visible
11 Oct ? 12:05:06 10° NNE 12:08:50 42° E 12:12:31 10° S visible
12 Oct ? 11:58:42 10° NNE 12:02:17 34° E 12:05:51 10° SSE visible
12 Oct ? 13:34:13 10° NNW 13:36:31 15° WNW 13:38:48 10° WSW visible
13 Oct ? 11:52:17 10° NE 11:55:41 28° E 11:59:04 10° SSE visible
13 Oct ? 13:27:18 10° NNW 13:29:59 18° WNW 13:32:40 10° WSW visible
